Regional Weather Roundup
Issued by NWS

Home | Current Version | Previous Version | Text Only | Print | Product List | Glossary Off
Versions: 1 2 3 4 5 6 7 8 9 10 11 12 13 14 15 16 17 18 19 20 21 22 23 24 25 26 27 28 29 30 31 32 33 34 35 36 37 38 39 40 41 42 43 44 45 46 47 48 49 50

398
ASUS43 KOAX 271910
RWRNE

WEATHER ROUNDUP FOR NEBRASKA
NATIONAL WEATHER SERVICE OMAHA NE
200 PM CDT WED JUL 27 2016

NOTES: SATELLITE DATA IS BEING USED TO AUGMENT CLOUD COVER ABOVE
       12000 FEET.
       "FAIR" INDICATES FEW OR NO CLOUDS BELOW 12,000 FEET WITH NO
       SIGNIFICANT WEATHER AND/OR OBSTRUCTIONS TO VISIBILITY.

  * THESE STATIONS DO NOT REPORT WEATHER SUCH AS RAIN...SNOW OR FOG.

NEZ001>004-019>022-054>056-272000-
NEBRASKA PANHANDLE

CITY           SKY/WX    TMP DP  RH WIND       PRES   REMARKS
SCOTTSBLUFF    SUNNY     84  55  36 CALM      30.13F
ALLIANCE       SUNNY     85  58  39 VRB5      30.11F
CHADRON        SUNNY     81  59  47 NE15      30.11S
KIMBALL        SUNNY     81  58  45 N3        30.19S
SIDNEY         SUNNY     85  57  38 MISG      30.16F
$$

NEZ057>060-069>072-079>082-272000-
SOUTHWEST NEBRASKA

CITY           SKY/WX    TMP DP  RH WIND       PRES   REMARKS
NORTH PLATTE   SUNNY     83  61  47 E18G24    30.03F
IMPERIAL       SUNNY     83  62  49 E10       30.11F
LEXINGTON      SUNNY     82  68  62 N3        30.07F
MCCOOK         PTSUNNY   80  69  69 E6        30.07F
OGALLALA       MOSUNNY   83  60  45 E7        30.10F
$$

NEZ005>010-023>029-035>040-094-272000-
NORTH CENTRAL NEBRASKA

CITY           SKY/WX    TMP DP  RH WIND       PRES   REMARKS
VALENTINE      PTSUNNY   84  57  39 MISG      30.06F
AINSWORTH      MOSUNNY   82  63  52 NE6       30.05F
BROKEN BOW     MOSUNNY   79  68  69 SW3       30.08F
O`NEILL        SUNNY     83  59  44 CALM      30.05F
ORD            SUNNY     80  61  52 NW5       30.06S
THEDFORD       PTSUNNY   80  63  55 N8        30.07F
$$

NEZ041-046>049-061>064-073>077-083>087-272000-
SOUTH CENTRAL NEBRASKA

CITY           SKY/WX    TMP DP  RH WIND       PRES   REMARKS
GRAND ISLAND   SUNNY     85  62  46 VRB3      30.05F
AURORA         SUNNY     83  64  51 NW5       30.04F
HASTINGS       SUNNY     83  65  54 VRB3      30.07F
HEBRON         MOSUNNY   85  62  45 N5        30.03F
HOLDREGE       MOSUNNY   80  66  62 E6        30.08F
KEARNEY *      SUNNY     84  23  10 N6        30.09S
YORK           SUNNY     82  68  61 NW7       30.03F
$$

NEZ011>018-030>034-042>045-272000-
NORTHEAST NEBRASKA

CITY           SKY/WX    TMP DP  RH WIND       PRES   REMARKS
NORFOLK        SUNNY     83  63  50 MISG      30.02F
ALBION         SUNNY     80  65  59 W3        30.05S
BLAIR          PTSUNNY   82  67  60 E3        30.00S
FREMONT        MOSUNNY   83  67  58 N7        29.99F
TEKAMAH        SUNNY     84  65  52 NE7       29.98F
WAYNE          SUNNY     84  68  57 N6        30.02S
$$

NEZ050>053-065>068-078-088>093-272000-
SOUTHEAST NEBRASKA

CITY           SKY/WX    TMP DP  RH WIND       PRES   REMARKS
LINCOLN        MOSUNNY   87  65  47 NW13      30.00S
OMAHA EPPLEY   MOSUNNY   88  67  49 N10       29.97F HX  91
BEATRICE       CLOUDY    86  67  53 SW8       30.00F
FALLS CITY     MOSUNNY   86  72  62 W7        29.98F HX  92
NEBRASKA CITY  MOSUNNY   84  72  66 SW8       29.98F
PLATTSMOUTH      N/A     86  68  55 SW8       29.99
$$

NEZ044-045-051>053-067-272000-
OMAHA AREA

CITY           SKY/WX    TMP DP  RH WIND       PRES   REMARKS
OMAHA EPPLEY   MOSUNNY   88  67  49 N10       29.97F HX  91
BLAIR          PTSUNNY   82  67  60 E3        30.00S
FREMONT        MOSUNNY   83  67  58 N7        29.99F
MILLARD        SUNNY     84  66  54 CALM      29.98S
OFFUTT AFB     MOSUNNY   86  67  52 W6        29.97F
PLATTSMOUTH      N/A     86  68  55 SW8       29.99
WAHOO          FAIR      84  69  60 MISG      29.99F
$$




USA.gov is the U.S. government's official web portal to all federal, state and local government web resources and services.